OBJECT A

Basic Information
Catalog Number:
44310
Catalog Name:
OBJECT A
International ID:
2019-032A
Orbit Center:
EARTH
Object Status:
In Orbit
Launch Date:
2019-06-05 UTC
Country:
中国 (CN)
Orbital Information
Data Source: International Orbital Data AOE Orbital Data
Epoch Time: 2026-09-04T01:44:40+0800 2026-09-02T09:00:00+0800
Semi-major Axis: 6854.636km 6854.719km
Eccentricity: 0.0010472 0.0010677
Inclination: 44.973° 44.972°
Argument of Perigee: 338.086° 329.824°
RAAN: 346.803° 356.107°
Mean Anomaly: 21.957° 31.014°
Perigee: 469.32km 469.263km
Apogee: 483.678km 483.901km
Period: 94.132分钟 94.133分钟
Mean Motion: 15.297704 15.297425
Detailed Information
Launch Site:
YSLA
Orbital Altitude:
LEO
Data Source:
AOE Working Group
Reference Frame:
TEME
Time System:
UTC
Epoch Type:
SGP4
2D Orbital Map
3D Orbital Map
Orbital Altitude Analysis
Orbital Inclination Analysis
Orbit Comprehensive Analysis Chart
View Comprehensive Chart